This is the latest recevied weather packets stored in our database for station/object OK2ZA-6. If no packets are shown the sender has not sent any weather packets the latest 10 day(s).
| Time | Temp. | Humidity | Pressure | Rain* | Wind** | Luminosity | Snow |
|---|---|---|---|---|---|---|---|
| 1788579004 | 17.22° C | 75% | 1016.6 hPa | 0 mm | - | - | - |
| 1788578404 | 17.22° C | 74% | 1016.4 hPa | 0 mm | - | - | - |
| 1788577804 | 17.78° C | 72% | 1016.4 hPa | 0 mm | - | - | - |
| 1788577204 | 18.33° C | 70% | 1016.4 hPa | 0 mm | - | - | - |
| 1788576604 | 18.33° C | 69% | 1016 hPa | 0 mm | - | - | - |
| 1788576004 | 18.33° C | 68% | 1015.8 hPa | 0 mm | - | - | - |
| 1788575404 | 18.33° C | 68% | 1015.7 hPa | 0 mm | - | - | - |
| 1788574805 | 18.33° C | 68% | 1015.4 hPa | 0 mm | - | - | - |
| 1788574204 | 18.33° C | 68% | 1015.8 hPa | 0 mm | - | - | - |
| 1788573604 | 18.33° C | 67% | 1015.6 hPa | 0 mm | - | - | - |
| 1788573004 | 18.89° C | 67% | 1015.4 hPa | 0 mm | - | - | - |
| 1788572404 | 18.89° C | 67% | 1015.1 hPa | 0 mm | - | - | - |
| 1788571804 | 18.89° C | 68% | 1015.4 hPa | 0 mm | - | - | - |
| 1788571204 | 19.44° C | 68% | 1015.3 hPa | 0 mm | - | - | - |
| 1788570634 | 20° C | 67% | 1015.2 hPa | 0 mm | - | - | - |
| 1788570004 | 21.11° C | 65% | 1015.1 hPa | 0 mm | - | - | - |
| 1788569404 | 22.22° C | 59% | 1014.1 hPa | 0 mm | - | - | - |
| 1788568804 | 22.78° C | 58% | 1013.5 hPa | 0 mm | - | - | - |
| 1788568204 | 22.78° C | 57% | 1013.3 hPa | 0 mm | - | - | - |
| 1788567004 | 22.78° C | 57% | 1013.2 hPa | 0 mm | - | - | - |
| 1788566404 | 22.78° C | 57% | 1013 hPa | 0 mm | - | - | - |
| 1788565804 | 22.78° C | 57% | 1013 hPa | 0 mm | - | - | - |
| 1788565204 | 22.78° C | 57% | 1012.9 hPa | 0 mm | - | - | - |
| 1788564604 | 22.78° C | 56% | 1013 hPa | 0 mm | - | - | - |
| 1788564004 | 22.78° C | 56% | 1013 hPa | 0 mm | - | - | - |
* Rain latest hour (hover to see other rain measurements)
** Current wind speed in m/s (hover to see current wind gust speed)